This is the latest recevied weather packets stored in our database for station/object DG9MHV-10. If no packets are shown the sender has not sent any weather packets the latest 10 day(s).
| Time | Temp. | Humidity | Pressure | Rain* | Wind** | Luminosity | Snow |
|---|---|---|---|---|---|---|---|
| 1777362076 | 19.44° C | 100% | 1017.8 hPa | - | - | - | - |
| 1777361176 | 18.89° C | 100% | 1017.8 hPa | - | - | - | - |
| 1777360276 | 14.44° C | 100% | 1017.9 hPa | - | - | - | - |
| 1777359376 | 13.89° C | 100% | 1017.9 hPa | - | - | - | - |
| 1777358476 | 12.78° C | 100% | 1017.6 hPa | - | - | - | - |
| 1777357576 | 10.56° C | 100% | 1017.6 hPa | - | - | - | - |
| 1777356676 | 8.89° C | 100% | 1017.4 hPa | - | - | - | - |
| 1777355776 | 8.33° C | 100% | 1017.2 hPa | - | - | - | - |
| 1777354876 | 7.78° C | 100% | 1017.3 hPa | - | - | - | - |
| 1777353975 | 7.78° C | 100% | 1017.2 hPa | - | - | - | - |
| 1777353075 | 7.22° C | 100% | 1016.8 hPa | - | - | - | - |
| 1777352175 | 5.56° C | 100% | 1016.6 hPa | - | - | - | - |
| 1777351275 | 5° C | 100% | 1016.7 hPa | - | - | - | - |
| 1777350375 | 4.44° C | 100% | 1016.6 hPa | - | - | - | - |
| 1777349475 | 4.44° C | 100% | 1016.7 hPa | - | - | - | - |
| 1777348575 | 5° C | 100% | 1016.7 hPa | - | - | - | - |
| 1777347675 | 5° C | 100% | 1016.6 hPa | - | - | - | - |
| 1777346775 | 5° C | 100% | 1016.6 hPa | - | - | - | - |
| 1777345875 | 5° C | 100% | 1016.6 hPa | - | - | - | - |
| 1777344975 | 5° C | 100% | 1016.8 hPa | - | - | - | - |
| 1777344075 | 4.44° C | 100% | 1016.8 hPa | - | - | - | - |
| 1777343178 | 5° C | 100% | 1016.9 hPa | - | - | - | - |
| 1777342278 | 5° C | 100% | 1017 hPa | - | - | - | - |
| 1777341378 | 5° C | 100% | 1017 hPa | - | - | - | - |
| 1777340474 | 5° C | 100% | 1017.1 hPa | - | - | - | - |
* Rain since midnight (hover to see other rain measurements)
** Current wind speed in m/s (hover to see current wind gust speed)